Home   Weather   Dordrecht   Past weeks

Flag for Netherlands Past Weather in Dordrecht, Netherlands — Yesterday and Last 2 Weeks

Now
63 °F

Clear.


Feels Like: 63 °F
Forecast: 51 / 66 °F
Wind: 10 mph from South

Location: Rotterdam Zestienhoven Airport

Current Time: Sep 25, 2016 at 2:20:30 AM

Latest Report: Sep 25, 2016 at 1:55 AM


Visibility: N/A

Pressure: 30.01 "Hg

Humidity: 59%

Dew Point: 48 °F

Location of DordrechtLocation

Past Weather in Dordrecht — Graph

°F

Dordrecht Temperature Yesterday

Maximum temperature yesterday: 75 °F (at 2:25 PM)
Minimum temperature yesterday: 50 °F (at 1:25 AM)
Average temperature yesterday: 64 °F

High & Low Weather Summary for the Past Weeks

 TemperatureHumidityPressure
High90 °F (Sep 13, 3:25 PM)100% (Sep 11, 5:55 AM)30.27 "Hg (Sep 11, 5:55 AM)
Low48 °F (Sep 22, 6:25 AM)36% (Sep 13, 3:25 PM)29.77 "Hg (Sep 15, 3:25 PM)
Average66 °F76%30.02 "Hg
* Reported Sep 10 12:25 AM — Sep 25 12:55 AM, Dordrecht, Weather by CustomWeather, © 2016

Note: Actual official high and low records may vary slightly from our data, if they occured in-between our weather recording intervals... More about our weather records

Advertising

Dordrecht Weather History for the Previous 24 Hours

Scroll right to see more
 ConditionsComfort  
Time TempWeatherWind HumidityBarometerVisibility
12:55 AM
Sun, Sep 25
63 °FClear.8 mph64%30.04 "HgN/A
12:25 AM64 °FClear.8 mph60%30.04 "HgN/A
11:55 PM
Sat, Sep 24
64 °FClear.8 mph60%30.04 "HgN/A
11:25 PM64 °FClear.6 mph60%30.07 "HgN/A
10:55 PM64 °FMild.8 mph60%30.07 "HgN/A
10:25 PM66 °FClear.7 mph56%30.07 "HgN/A
9:55 PM66 °FMild.8 mph56%30.07 "HgN/A
9:25 PM66 °FMild.8 mph56%30.07 "HgN/A
8:55 PM66 °FMild.7 mph56%30.07 "HgN/A
8:25 PM68 °FClear.8 mph53%30.07 "HgN/A
7:55 PM68 °FClear.9 mph53%30.07 "HgN/A
7:25 PM70 °FMild.10 mph50%30.07 "HgN/A
6:55 PM72 °FMild.12 mph47%30.07 "HgN/A
6:25 PM73 °FClear.13 mph44%30.07 "HgN/A
5:55 PM73 °FClear.14 mph44%30.09 "HgN/A
5:25 PM73 °FMild.12 mph47%30.09 "HgN/A
4:55 PM75 °FClear.13 mph44%30.09 "HgN/A
4:25 PM75 °FMild.15 mph41%30.12 "HgN/A
3:55 PM75 °FMild.15 mph41%30.12 "HgN/A
3:25 PM75 °FClear.16 mph41%30.12 "HgN/A
2:55 PM75 °FClear.15 mph41%30.15 "HgN/A
2:25 PM75 °FMild.15 mph44%30.15 "HgN/A
1:55 PM73 °FMild.12 mph50%30.18 "HgN/A
1:25 PM72 °FClear.12 mph53%30.18 "HgN/A
12:55 PM70 °FClear.10 mph57%30.18 "HgN/A
12:25 PM70 °FClear.12 mph53%30.18 "HgN/A
11:55 AM68 °FMild.9 mph60%30.21 "HgN/A
11:25 AM66 °FMild.9 mph64%30.21 "HgN/A
10:55 AM64 °FMild.8 mph73%30.21 "HgN/A
10:25 AM63 °FMild.6 mph77%30.21 "HgN/A
9:55 AM61 °FCool.8 mph83%30.21 "HgN/A
9:25 AM59 °FClear.7 mph88%30.21 "HgN/A
8:55 AM57 °FClear.8 mph88%30.21 "HgN/A
8:25 AM57 °FClear.8 mph88%30.21 "HgN/A
7:55 AM55 °FPartly sunny.8 mph88%30.18 "HgN/A
7:25 AM57 °FPassing clouds.9 mph82%30.18 "HgN/A
6:55 AM55 °FCool.8 mph88%30.18 "HgN/A
6:25 AM55 °FClear.10 mph82%30.18 "HgN/A
5:55 AM55 °FCool.9 mph82%30.18 "HgN/A
5:25 AM57 °FPassing clouds.10 mph77%30.21 "HgN/A
4:55 AM55 °FCool.12 mph77%30.21 "HgN/A
4:25 AM57 °FClear.10 mph72%30.21 "HgN/A
3:55 AM55 °FClear.9 mph77%30.21 "HgN/A
3:25 AM52 °FPassing clouds.9 mph88%30.24 "HgN/A
2:55 AM50 °FCool.5 mph94%30.24 "HgN/A
2:25 AM52 °FCool.2 mph94%30.24 "HgN/A
Weather by CustomWeather, © 2016

See weather overviewHow to use our weather pages